Home > Weather > Mudgee > Past weeks

Flag for Australia Past Weather in Mudgee, New South Wales, Australia — Yesterday and Last 2 Weeks

Now
47 °F

Cool.


Feels Like: 46 °F
Forecast: 37 / 56 °F
Wind: 5 mph from South

Location: Mudgee Aws

Current Time: Jul 28, 2016 at 10:56:24 AM

Latest Report: Jul 28, 2016 at 9:00 AM


Visibility: N/A

Pressure: 30.32 "Hg

Humidity: 76%

Dew Point: 40 °F

Location of MudgeeLocation

Past Weather in Mudgee — Graph

°F

Mudgee Temperature Yesterday

Maximum temperature yesterday: 54 °F (at 2:00 PM)
Minimum temperature yesterday: 42 °F (at 8:00 PM)
Average temperature yesterday: 48 °F

High & Low Weather Summary for the Past Weeks

 TemperatureHumidityPressure
High69 °F (Jul 22, 2:00 PM)100% (Jul 18, 8:00 AM)30.50 "Hg (Jul 18, 8:00 AM)
Low27 °F (Jul 15, 6:00 AM)41% (Jul 14, 3:00 PM)29.63 "Hg (Jul 23, 12:00 AM)
Average50 °F83%30.17 "Hg
* Reported Jul 13 9:00 AM — Jul 28 9:00 AM, Mudgee, Weather by CustomWeather, © 2016

Note: Actual official high and low records may vary slightly from our data, if they occured in-between our weather recording intervals... More about our weather records

Advertising

Mudgee Weather History for the Previous 24 Hours

Scroll right to see more
 ConditionsComfort  
Time TempWeatherWind HumidityBarometerVisibility
9:00 AM
Thu, Jul 28
47 °FCool.5 mph76%30.32 "HgN/A
8:00 AM45 °FCool.7 mph87%30.31 "HgN/A
6:00 AM40 °FPassing clouds.6 mph96%30.26 "HgN/A
5:00 AM41 °FQuite cool.8 mph92%30.24 "HgN/A
3:00 AM46 °FOvercast.8 mph83%30.24 "HgN/A
2:00 AM47 °FCool.9 mph79%30.24 "HgN/A
12:00 AM47 °FOvercast.9 mph76%30.24 "HgN/A
11:00 PM
Wed, Jul 27
47 °FCool.5 mph87%30.24 "HgN/A
9:00 PM44 °FPassing clouds.6 mph91%30.23 "HgN/A
8:00 PM42 °FQuite cool.5 mph86%30.21 "HgN/A
6:00 PM48 °FCool.9 mph74%30.16 "HgN/A
5:00 PM51 °FCool.16 mph68%30.13 "HgN/A
3:00 PM54 °FPartly sunny.17 mph56%30.09 "HgN/A
2:00 PM54 °FCool.21 mph58%30.07 "HgN/A
12:00 PM53 °FOvercast.16 mph64%30.06 "HgN/A
11:00 AM51 °FCool.15 mph75%30.07 "HgN/A
Weather by CustomWeather, © 2016

See weather overviewHow to use our weather pages